Needles, CA

4:01 PM PST on January 20, 2018 (GMT -0800)
Needles

Weather History for KEED - June, 2013

Change the Weather History Date:

Tuesday, June 18, 2013

  Actual Average Record
Temperature  
Mean Temperature 93 °F 92 °F  
Max Temperature 109 °F 105 °F 119 °F (2017)
Min Temperature 78 °F 78 °F 60 °F (1939)
Degree Days  
Heating Degree Days 0    
Cooling Degree Days 28    
Growing Degree Days 43 (Base 50)    
Moisture  
Dew Point 21 °F    
Average Humidity 7    
Maximum Humidity 13    
Minimum Humidity 4    
Precipitation  
Precipitation 0.00 in 0.00 in 0.06 in (1918)
Month to date precipitation 0.02  
Year to date precipitation 2.37  
Sea Level Pressure  
Sea Level Pressure 29.59 in    
Wind  
Wind Speed 6 mph (SSW)    
Max Wind Speed 21 mph    
Max Gust Speed 30 mph    
Visibility 10 miles    
Events      
T = Trace of Precipitation, MM = Missing Value Source: NWS Daily Summary

Daily Weather History Graph

Daily Weather History Graph

Search for Another Location

Airport or City:

Trip Planner

Search our weather history database for the weather conditions in past years. The results will help you decide how hot, cold, wet, or windy it might be!

Date:

Astronomy

Jun. 18, 2013 Rise Set
Actual Time 5:25 AM PDT 7:54 PM PDT
Civil Twilight 4:55 AM PDT 8:24 PM PDT
Nautical Twilight 4:18 AM PDT 9:00 PM PDT
Astronomical Twilight 3:38 AM PDT 9:40 PM PDT
Moon 2:52 PM PDT (6/18) 1:25 AM PDT (6/18)
Length of Visible Light 15h 28m
Length of Day
14h 29m
Waxing Gibbous, 72% of the Moon is Illuminated
Jun 18
Waxing Gibbous
Jun 23
Full
Jun 29
Last Quarter
Jul 8
New
Jul 15
First Quarter

Hourly Weather History & Observations

Time (PDT) Temp. Dew Point Humidity Pressure Visibility Wind Dir Wind Speed Gust Speed Precip Events Conditions
12:56 AM 91.9 °F 14.0 °F 6% 29.62 in 10.0 mi Calm Calm - N/A   Clear
1:56 AM 87.1 °F 15.1 °F 7% 29.62 in 10.0 mi Calm Calm - N/A   Clear
2:56 AM 82.9 °F 21.0 °F 10% 29.62 in 10.0 mi West 6.9 mph - N/A   Clear
3:56 AM 80.1 °F 21.0 °F 11% 29.63 in 10.0 mi WNW 3.5 mph - N/A   Clear
4:56 AM 78.1 °F 21.0 °F 12% 29.65 in 10.0 mi Calm Calm - N/A   Clear
5:56 AM 79.0 °F 23.0 °F 13% 29.65 in 10.0 mi West 5.8 mph - N/A   Clear
6:56 AM 84.0 °F 19.0 °F 9% 29.67 in 10.0 mi Calm Calm - N/A   Clear
7:56 AM 88.0 °F 19.0 °F 8% 29.68 in 10.0 mi North 3.5 mph - N/A   Clear
8:56 AM 93.0 °F 23.0 °F 8% 29.67 in 10.0 mi East 4.6 mph - N/A   Clear
9:56 AM 96.1 °F 30.0 °F 10% 29.66 in 10.0 mi Variable 5.8 mph - N/A   Clear
10:56 AM 102.0 °F 26.1 °F 7% 29.65 in 10.0 mi SSW 8.1 mph 17.3 mph N/A   Clear
11:56 AM 102.9 °F 25.0 °F 6% 29.64 in 10.0 mi South 9.2 mph 23.0 mph N/A   Clear
12:56 PM 106.0 °F 21.0 °F 5% 29.61 in 10.0 mi South 19.6 mph 25.3 mph N/A   Clear
1:56 PM 108.0 °F 19.9 °F 4% 29.59 in 10.0 mi South 20.7 mph 27.6 mph N/A   Clear
2:56 PM 108.0 °F 19.9 °F 4% 29.57 in 10.0 mi SSW 17.3 mph 29.9 mph N/A   Clear
3:56 PM 108.0 °F 19.9 °F 4% 29.55 in 10.0 mi SW 13.8 mph 20.7 mph N/A   Clear
4:56 PM 108.0 °F 23.0 °F 5% 29.52 in 10.0 mi South 17.3 mph 27.6 mph N/A   Clear
5:56 PM 107.1 °F 21.9 °F 5% 29.51 in 10.0 mi South 13.8 mph 24.2 mph N/A   Clear
6:56 PM 105.1 °F 15.1 °F 4% 29.50 in 10.0 mi SSW 16.1 mph 23.0 mph N/A   Clear
7:56 PM 102.0 °F 12.0 °F 4% 29.50 in 10.0 mi SSW 13.8 mph - N/A   Clear
8:56 PM 99.0 °F 14.0 °F 5% 29.50 in 10.0 mi SSW 10.4 mph - N/A   Clear
9:56 PM 97.0 °F 21.0 °F 6% 29.51 in 10.0 mi SW 12.7 mph - N/A   Clear
10:56 PM 93.9 °F 25.0 °F 8% 29.51 in 10.0 mi SSW 9.2 mph - N/A   Clear
11:56 PM 91.9 °F 30.0 °F 11% 29.52 in 10.0 mi WSW 11.5 mph - N/A   Clear